Date,TemperatureHighF,TemperatureAvgF,TemperatureLowF,DewpointHighF,DewpointAvgF,DewpointLowF,HumidityHigh,HumidityAvg,HumidityLow,PressureMaxIn,PressureMinIn,WindSpeedMaxMPH,WindSpeedAvgMPH,GustSpeedMaxMPH,PrecipitationSumIn
2013-3-1,39.3,35.0,32.0,34.0,31.6,27.7,94,88,75,29.78,29.61,5,1,11,0.00
2013-3-2,35.4,30.7,25.7,27.7,24.6,21.8,87,78,67,29.79,29.72,8,3,16,0.00
2013-3-3,31.2,27.2,23.9,25.8,21.4,18.8,86,79,71,29.79,29.71,8,3,16,0.00
2013-3-4,31.0,28.2,25.7,22.4,21.4,20.0,81,75,68,29.83,29.77,12,5,21,0.00
2013-3-7,38.1,33.8,29.6,30.2,27.4,23.6,92,78,59,30.17,30.11,8,3,15,0.00
2013-3-8,41.0,32.8,29.1,30.4,27.7,24.6,93,82,61,30.30,30.10,10,3,17,0.00
2013-3-9,49.2,35.0,25.7,27.3,24.5,21.6,86,68,36,30.37,30.28,9,1,12,0.00
2013-3-10,53.8,39.5,21.0,31.8,24.7,18.5,92,60,31,30.37,30.20,5,2,18,0.00
2013-3-11,50.4,44.6,37.4,41.6,34.3,29.0,77,67,54,30.25,29.99,10,3,18,0.00
2013-3-12,53.5,48.2,39.1,50.8,44.5,34.0,94,87,76,30.01,29.67,13,3,22,0.00
2013-3-13,46.5,38.9,30.8,34.0,28.6,22.0,91,68,42,29.88,29.78,13,3,16,0.00
2013-3-14,27.8,27.3,26.2,18.5,15.7,13.4,71,62,55,29.93,29.87,11,5,22,0.00
2013-3-15,37.7,32.6,20.7,30.4,22.8,10.7,87,67,49,29.93,29.67,7,2,17,0.00
2013-3-16,35.4,30.8,24.8,18.1,15.7,12.7,69,54,40,29.93,29.80,5,2,15,0.00
2013-3-17,32.7,26.9,22.4,17.3,14.3,11.0,68,59,44,30.14,29.93,9,4,16,0.00
2013-3-18,39.2,30.6,15.1,26.4,13.9,5.0,91,54,24,30.46,30.10,5,1,13,0.00
2013-3-19,34.6,31.4,27.5,32.4,28.8,24.8,94,90,79,30.10,29.71,5,1,13,0.00
2013-3-20,36.7,29.7,16.9,25.0,21.4,14.5,92,72,55,29.83,29.77,9,2,15,0.00
2013-3-21,36.1,27.3,13.5,19.2,14.9,10.7,90,62,38,29.83,29.66,8,2,13,0.00
2013-3-22,35.4,31.5,20.0,25.2,22.6,13.9,85,70,59,29.84,29.71,15,3,21,0.00
2013-3-23,41.0,35.4,30.8,24.4,22.8,20.6,73,60,48,29.90,29.80,16,5,27,0.00
2013-3-24,44.1,36.3,32.0,25.5,23.9,22.0,71,61,45,29.91,29.77,9,2,14,0.00
2013-3-25,43.6,36.5,29.0,29.2,26.3,23.0,81,67,49,29.78,29.53,7,2,11,0.00
2013-3-26,47.2,38.2,28.9,30.2,26.0,20.2,85,64,37,29.86,29.61,8,1,14,0.00
2013-3-27,51.2,38.5,26.8,34.3,28.0,22.4,85,67,44,29.95,29.84,13,2,19,0.00
2013-3-28,48.6,40.9,36.3,36.2,33.0,30.4,88,74,59,30.06,29.94,8,2,11,0.00
2013-3-30,52.5,44.3,34.0,25.2,24.0,22.1,66,46,32,30.12,30.06,5,1,11,0.00
2013-3-31,55.9,39.0,28.8,39.8,27.7,22.3,92,66,34,30.12,29.72,18,1,18,0.00